This demonstration page uses our WeatherBlox Daily Observations layout. Learn more.

Left ArrowRight Arrow

Hourly Observations for January 19, 2015

Temp ( °F °C ) Dew Point ( °F °C ) Humidity (%) Winds ( mph kmh ) Pressure ( in mb ) Visibility ( mi km ) Precip ( " mm )
12:52 am 00:52 Partly Cloudy 30 -1.1 24 -4.4 79 79 SW 3 6 29.97 1015 10 16 0.00 0.00
1:52 am 01:52 Mostly Clear 28 -2.2 23 -5 81 81 SSW 3 6 29.96 1015 10 16 0.00 0.00
2:52 am 02:52 Mostly Clear 27 -2.8 23 -5 85 85 Calm 29.96 1015 10 16 0.00 0.00
3:52 am 03:52 Clear 27 -2.8 23 -5 85 85 SE 5 7 29.94 1014 10 16 0.00 0.00
4:52 am 04:52 Clear 26 -3.3 23 -5 88 88 S 3 6 29.95 1014 10 16 0.00 0.00
5:52 am 05:52 Partly Cloudy 29 -1.7 25 -3.9 85 85 S 6 9 29.94 1014 10 16 0.00 0.00
6:52 am 06:52 Mostly Cloudy 31 -0.6 26 -3.3 82 82 SSE 7 11 29.93 1014 10 16 0.00 0.00
7:52 am 07:52 Mostly Cloudy 31 -0.6 26 -3.3 82 82 SSE 6 9 29.92 1013 10 16 0.00 0.00
8:52 am 08:52 Mostly Cloudy 33 0.6 27 -2.8 78 78 SE 5 7 29.93 1014 10 16 0.00 0.00
9:52 am 09:52 Mostly Cloudy 37 2.8 29 -1.7 73 73 N 5 7 29.95 1014 10 16 0.00 0.00
10:52 am 10:52 Mostly Cloudy 40 4.4 29 -1.7 65 65 S 5 7 29.95 1014 10 16 0.00 0.00
11:52 am 11:52 Mostly Cloudy 47 8.3 31 -0.6 54 54 N 7 11 29.92 1013 10 16 0.00 0.00
12:52 pm 12:52 Mostly Cloudy 48 8.9 29 -1.7 48 48 WNW 10 17 29.93 1014 10 16 0.00 0.00
1:52 pm 13:52 Mostly Cloudy 51 10.6 29 -1.7 43 43 N 8 13 29.92 1013 10 16 0.00 0.00
2:52 pm 14:52 Mostly Cloudy 48 8.9 30 -1.1 50 50 N 7 11 29.93 1014 10 16 0.00 0.00
3:52 pm 15:52 Partly Cloudy 50 10 31 -0.6 48 48 N 5 7 29.94 1014 10 16 0.00 0.00
4:52 pm 16:52 Partly Cloudy 48 8.9 31 -0.6 52 52 Calm 29.95 1014 10 16 0.00 0.00
5:52 pm 17:52 Mostly Clear 43 6.1 29 -1.7 58 58 Calm 29.96 1015 10 16 0.00 0.00
6:52 pm 18:52 Clear 35 1.7 27 -2.8 72 72 Calm 29.98 1015 10 16 0.00 0.00
7:52 pm 19:52 Clear 35 1.7 27 -2.8 72 72 Calm 29.98 1015 10 16 0.00 0.00
8:52 pm 20:52 Clear 34 1.1 26 -3.3 73 73 W 3 6 29.97 1015 10 16 0.00 0.00
9:52 pm 21:52 Clear 45 7.2 29 -1.7 54 54 W 16 26 29.96 1015 10 16 0.00 0.00
10:52 pm 22:52 Clear 42 5.6 28 -2.2 58 58 W 13 20 29.97 1015 10 16 0.00 0.00
11:52 pm 23:52 Clear 41 5 28 -2.2 60 60 W 13 20 29.97 1015 10 16 0.00 0.00

Powered by AerisWeather